Location: Austin
(30.3000°N, 97.7500°W)
Time: 00:25:37
(UTC-06:00)

Cosmos 1818 - Pass Details

Date: 04 November 2025
Orbit: 776 x 794 km, 65.0° (Epoch: 15 November)

Event Time Altitude Azimuth Distance (km) Brightness Sun altitude
Rises 18:07:23 0° 341° (NNW) 3,295 6.8 -6.3°
Reaches altitude 10° 18:09:57 10° 348° (NNW) 2,361 6.0 -6.9°
Maximum altitude 18:15:04 41° 59° (ENE) 1,132 4.0 -7.9°
Drops below altitude 10° 18:20:08 10° 129° (SE) 2,343 5.7 -9.0°
Sets 18:22:40 0° 136° (SE) 3,266 6.5 -9.5°
